Lid_Strength_Index
-1 -1 -1 -1 -1 -1 -1 -1 -1 -1 -1 -1 -1 -1 -1 -1 -1 0 2 3 5 8 7 6 6 8 9 8 9 9 9 9 10 11 11 11 12 11 11 11 13 13 15 16 15 16 17 10 12 13 10 10 9 10
-1 -1 -1 -1 -1 -1 -1 -1 -1 -1 -1 -1 -1 -1 -1 -1 -1 -0 3 2 2 5 7 5 5 4 8 9 8 8 8 9 8 9 9 9 11 10 11 13 10 13 10 12 12 12 9 9 10 9 8 9 9 9
-1 -1 -1 -1 -1 -1 -1 -1 -1 -1 -1 -1 -1 -1 -1 -1 -1 -0 2 2 4 8 7 8 8 5 4 7 6 10 8 6 7 6 8 8 11 9 12 11 11 10 8 10 11 9 9 9 9 9 8 8 8 8
-1 -1 -1 -1 -1 -1 -1 -1 -1 -1 -1 -1 -1 -1 -1 -1 -1 -0 2 2 4 6 9 9 5 6 4 6 7 8 8 6 5 6 8 9 11 9 11 10 10 9 9 10 10 10 9 8 9 9 8 8 8 7
-1 -1 -1 -1 -1 -1 -1 -1 -1 -1 -1 -1 -1 -1 -1 -0 -0 -0 1 2 2 5 9 9 6 6 6 6 8 8 8 8 8 8 9 10 9 10 10 10 11 10 10 11 11 9 9 9 8 8 8 8 7 8
-1 -1 -1 -1 -1 -1 -1 -1 -1 -1 -1 -0 -0 -0 -0 -0 -0 1 5 1 2 3 8 12 8 7 7 8 9 9 9 8 8 8 9 8 8 9 13 14 10 9 8 8 9 8 8 8 7 7 8 8 7 7
-1 -1 -1 -1 -1 -1 -1 -1 -0 -0 -1 -0 -0 -0 -0 -0 1 4 5 2 1 3 8 12 11 8 6 8 8 9 9 9 9 10 10 10 10 9 12 14 11 10 8 8 8 9 11 9 10 8 8 7 6 7
-1 -1 -1 -1 -1 -1 -1 -1 -0 -0 -0 -0 -0 -0 -0 -0 1 4 3 1 0 5 7 12 12 11 7 11 12 9 11 10 10 11 11 12 12 12 15 12 10 10 9 9 8 8 10 10 9 9 8 8 9 9
-1 -1 -1 -1 -1 -1 -1 -1 -0 -0 -0 -0 -0 -0 1 2 4 4 1 1 3 6 12 12 13 14 8 11 10 10 9 12 10 12 12 12 13 15 13 12 11 10 10 10 10 10 10 10 10 10 9 9 10 10
-1 -1 -1 -1 -1 -1 -1 -1 -0 -0 -0 -0 2 5 6 3 -0 1 4 8 7 8 9 12 8 12 9 10 12 12 11 13 14 13 11 14 14 11 11 10 10 10 9 9 11 11 11 11 11 10 10 9 9 9
-1 -1 -1 -1 -1 -0 -0 -0 -0 -0 -0 2 6 8 2 0 3 5 10 11 11 12 11 10 8 11 7 11 12 10 13 12 15 13 14 15 15 12 10 10 9 9 9 9 8 9 9 10 10 10 10 10 10 10
-0 -1 -0 -0 -0 -0 -0 -0 -0 1 2 3 3 1 3 5 8 10 10 11 11 11 10 9 9 8 8 8 12 12 13 13 16 11 14 17 12 10 10 10 9 8 8 9 9 9 9 10 10 10 10 10 10 10
0 -0 -0 -0 -0 -0 -0 -0 -0 -0 0 2 5 7 9 9 12 13 14 12 12 9 9 8 10 9 8 8 11 12 14 15 11 15 16 15 11 10 10 9 9 8 8 8 9 9 9 10 10 10 10 10 10 10
-0 -0 -0 -0 -0 -0 -0 -0 -0 0 3 7 8 11 11 12 11 10 10 10 8 7 8 7 9 9 9 10 10 13 12 13 16 17 17 13 11 10 10 9 10 10 10 10 10 10 10 10 10 10 10 10 10 10
0 0 0 0 -0 -0 -0 -0 -0 1 5 8 8 12 11 8 7 7 6 7 6 7 7 8 8 8 10 11 11 13 14 16 16 16 12 10 10 10 10 10 10 10 10 10 10 10 10 10 11 11 10 10 9 9
0 0 1 0 -0 -0 -0 0 1 2 5 7 8 10 8 8 9 8 7 7 6 6 6 7 10 11 12 12 13 14 15 16 14 12 10 9 10 10 10 10 10 10 10 11 11 11 11 11 11 10 10 10 10 10
0 2 0 0 -0 -0 -0 2 5 8 8 8 9 6 7 7 8 7 6 7 5 7 10 10 12 13 10 13 14 12 13 11 10 10 9 9 9 10 9 10 10 10 11 11 11 11 11 10 10 10 11 11 10 9
2 1 0 0 0 1 3 4 7 8 9 8 9 7 6 6 7 7 6 5 6 7 10 10 8 12 13 14 13 10 9 8 8 9 9 9 9 9 9 10 10 11 11 11 11 11 11 11 11 11 11 10 10 10
1 0 0 0 1 5 7 8 7 9 8 7 6 5 6 6 5 5 5 5 5 5 8 10 11 12 11 9 9 8 8 8 9 9 9 9 9 10 10 10 11 11 11 11 11 11 11 11 11 10 10 10 11 11
0 0 0 0 1 5 7 8 7 7 8 7 6 6 6 6 5 5 6 5 6 8 10 11 10 9 8 8 8 7 7 7 8 9 10 10 10 10 11 11 11 11 11 11 11 10 10 10 10 10 10 10 10 11
1 4 1 3 4 5 6 8 8 7 6 7 6 6 7 6 7 7 7 5 9 10 10 8 7 7 7 7 7 8 8 8 9 8 9 10 10 10 11 11 10 11 11 11 11 11 10 11 10 9 9 10 10 10
3 2 5 4 7 7 7 5 6 5 6 7 7 6 8 9 8 7 6 8 9 8 8 7 6 5 7 7 7 8 8 8 8 9 8 8 11 11 11 10 11 12 12 12 11 11 11 10 9 9 10 10 9 10
3 4 6 7 8 7 9 5 8 7 10 9 7 9 9 9 7 5 9 8 7 5 6 6 5 5 6 6 7 8 8 9 9 9 10 10 10 10 10 11 10 11 11 12 11 10 10 9 9 10 10 10 11 10
3 7 8 8 8 10 8 8 7 8 8 9 10 11 10 9 7 9 10 9 6 5 5 5 5 7 7 7 8 8 8 8 9 9 9 10 11 11 10 11 10 10 10 11 11 11 11 10 9 10 10 11 11 11
8 8 8 10 8 10 10 10 10 10 11 9 10 11 10 8 10 11 11 10 7 6 6 5 5 6 7 7 7 7 7 8 9 10 10 10 10 11 11 11 11 11 10 11 11 11 11 11 11 11 11 11 11 11
11 8 9 9 10 10 10 11 11 10 10 11 10 9 8 10 12 12 10 8 7 6 6 6 6 6 6 7 7 8 8 7 8 10 10 9 10 11 12 12 13 12 10 10 11 11 11 11 11 11 11 11 9 10
12 10 8 6 8 8 9 8 8 9 11 11 10 10 11 13 13 9 6 5 6 5 4 4 5 6 6 6 6 6 6 7 8 9 9 9 9 9 10 11 12 11 10 10 10 11 11 11 11 11 11 10 10 10
8 8 11 9 9 8 10 9 10 10 10 8 9 11 12 11 11 7 6 4 4 4 3 4 4 4 5 5 5 6 7 8 8 9 9 10 10 9 9 9 10 9 9 9 10 10 10 10 11 11 11 10 10 10
9 8 8 10 8 8 9 9 9 8 7 8 10 10 9 7 5 5 5 5 5 5 5 6 5 4 5 5 5 6 8 8 9 11 11 12 12 12 10 10 10 9 9 9 9 9 10 10 10 10 10 10 10 10
9 7 9 9 10 10 8 7 8 6 6 6 7 7 8 8 7 6 6 6 6 6 5 5 5 5 6 6 7 8 7 7 7 8 10 10 10 9 10 10 10 10 9 10 10 9 8 9 9 10 10 10 11 11
7 7 8 9 10 8 7 7 6 7 7 7 7 8 8 8 7 6 6 6 6 5 6 6 5 6 6 5 6 7 9 7 7 7 7 7 8 9 9 9 9 9 10 10 10 10 10 11 10 10 11 12 12 12
8 9 9 11 10 9 8 8 8 8 8 9 9 8 9 9 10 7 6 7 7 7 5 5 6 6 5 5 5 4 5 6 6 7 7 8 8 8 8 9 9 9 10 10 10 10 11 10 10 11 12 12 12 13
8 8 9 9 10 10 9 9 10 10 10 10 9 9 9 9 9 7 7 7 6 6 6 5 4 4 4 4 4 4 5 5 6 6 6 7 7 8 8 9 9 9 10 10 10 11 11 10 11 11 11 12 12 12